This is the latest recevied weather packets stored in our database for station/object EA3GKP-7. If no packets are shown the sender has not sent any weather packets the latest 1 day(s).
| Time | Temp. | Humidity | Pressure | Rain* | Wind** | Luminosity | Snow |
|---|---|---|---|---|---|---|---|
| 1778093843 | 19.44° C | 10% | - | - | - | - | - |
| 1778093543 | 18.89° C | 97% | 1015.8 hPa | - | - | - | - |
| 1778092943 | 19.44° C | 94% | 1015.7 hPa | - | - | - | - |
| 1778092643 | 19.44° C | 90% | 1015.6 hPa | - | - | - | - |
| 1778092043 | 19.44° C | 85% | 1015.5 hPa | - | - | - | - |
| 1778091743 | 19.44° C | 86% | 1015.5 hPa | - | - | - | - |
| 1778091143 | 20° C | 73% | 1015.4 hPa | - | - | - | - |
| 1778090843 | 20° C | 73% | 1015.3 hPa | - | - | - | - |
| 1778090543 | 20° C | 68% | 1015.3 hPa | - | - | - | - |
| 1778090243 | 20° C | 66% | 1015.1 hPa | - | - | - | - |
| 1778089943 | 20° C | 64% | 1015.1 hPa | - | - | - | - |
| 1778089643 | 20° C | 61% | 1015.1 hPa | - | - | - | - |
| 1778089343 | 20° C | 60% | 1015.1 hPa | - | - | - | - |
| 1778089043 | 20.56° C | 58% | 1015 hPa | - | - | - | - |
| 1778088143 | 20.56° C | 53% | 1014.9 hPa | - | - | - | - |
| 1778087843 | 20.56° C | 52% | 1014.9 hPa | - | - | - | - |
| 1778087543 | 20.56° C | 53% | 1014.8 hPa | - | - | - | - |
| 1778087243 | 20.56° C | 53% | 1014.9 hPa | - | - | - | - |
| 1778086943 | 20.56° C | 56% | 1014.8 hPa | - | - | - | - |
| 1778086643 | 20.56° C | 57% | 1014.7 hPa | - | - | - | - |
| 1778085443 | 20.56° C | 61% | 1014.8 hPa | - | - | - | - |
| 1778085143 | 20.56° C | 61% | 1014.8 hPa | - | - | - | - |
| 1778084843 | 20.56° C | 61% | 1014.7 hPa | - | - | - | - |
| 1778084543 | 20.56° C | 60% | 1014.7 hPa | - | - | - | - |
| 1778084243 | 20.56° C | 60% | 1014.7 hPa | - | - | - | - |
* Rain since midnight (hover to see other rain measurements)
** Current wind speed in m/s (hover to see current wind gust speed)